Location: Kearney
(40.6990°N, 99.0810°W)
Time: 17:47:19
(UTC-05:00)

CZ-4 R/B - Pass Details

Date: 18 December 2017
Orbit: 534 x 598 km, 97.8° (Epoch: 21 April)

Event Time Altitude Azimuth Distance (km) Brightness Sun altitude
Rises 18:54:17 0° 190° (S) 2,679 5.2 -18.8°
Reaches altitude 10° 18:56:34 10° 201° (SSW) 1,799 4.4 -19.2°
Maximum altitude 19:00:00 30° 263° (W) 1,007 3.4 -19.9°
Drops below altitude 10° 19:03:31 10° 326° (NW) 1,840 4.2 -20.5°
Sets 19:05:53 0° 337° (NNW) 2,752 5.0 -21.0°
